AURA

Last updated on Wed Sep 09 2026 00:02:45 GMT+0000 (Coordinated Universal Time)

1 28376U 04026A 26251.58651405 .00000536 00000+0 11809-3 0 9993 2 28376 98.3501 208.7686 0001599 72.5769 287.5606 14.61433429178390
UTC large
Height (km)
Speed (km/s)
/
Latitude / Longitude
Inclination (degrees)
Orbital Period (minutes)
Azimuth
Elevation
Range (km)
Doppler Factor

Next 0 passes for location: London (51.5072 / 0.1276)

No passes found over London.
AURA